This is the latest recevied weather packets stored in our database for station/object KL7GG. If no packets are shown the sender has not sent any weather packets the latest 1 day(s).
| Time | Temp. | Humidity | Pressure | Rain* | Wind** | Luminosity | Snow |
|---|---|---|---|---|---|---|---|
| 1778063524 | 3.89° C | 68% | 1007.4 hPa | 0 mm | 0 m/s | - | - |
| 1778062620 | 4.44° C | 66% | 1007.3 hPa | 0 mm | 0 m/s | - | - |
| 1778061716 | 4.44° C | 68% | 1007.3 hPa | 0 mm | 0 m/s | - | - |
| 1778060812 | 4.44° C | 66% | 1007.2 hPa | 0 mm | 0 m/s | - | - |
| 1778059908 | 4.44° C | 66% | 1007.1 hPa | 0 mm | 0 m/s | - | - |
| 1778059004 | 4.44° C | 64% | 1007.2 hPa | 0 mm | 0 m/s | - | - |
| 1778057194 | 3.89° C | 63% | 1006.9 hPa | 0 mm | 0 m/s | - | - |
| 1778056290 | 4.44° C | 64% | 1006.7 hPa | 0 mm | 0 m/s | - | - |
| 1778055386 | 5° C | 61% | 1006.7 hPa | 0 mm | 0 m/s | - | - |
| 1778054482 | 5° C | 62% | 1006.6 hPa | 0 mm | 0 m/s | - | - |
| 1778053578 | 5.56° C | 62% | 1006.7 hPa | 0 mm | 0 m/s | - | - |
| 1778052674 | 5.56° C | 62% | 1006.7 hPa | 0 mm | 0 m/s | - | - |
| 1778051770 | 6.11° C | 60% | 1006.5 hPa | 0 mm | 0 m/s | - | - |
| 1778050866 | 6.11° C | 59% | 1006.3 hPa | 0 mm | 0 m/s | - | - |
| 1778049962 | 6.11° C | 58% | 1006.1 hPa | 0 mm | 0 m/s | - | - |
| 1778049056 | 6.67° C | 57% | 1005.8 hPa | 0 mm | 0 m/s | - | - |
| 1778048152 | 7.22° C | 52% | 1005.7 hPa | 0 mm | 0 m/s | - | - |
| 1778047248 | 7.78° C | 50% | 1005.5 hPa | 0 mm | 0.45 m/s, 117° | - | - |
| 1778046344 | 8.33° C | 50% | 1005.5 hPa | 0 mm | 1.34 m/s, 127° | - | - |
| 1778045438 | 8.33° C | 50% | 1005.2 hPa | 0 mm | 0.89 m/s, 138° | - | - |
| 1778044534 | 8.33° C | 49% | 1005 hPa | 0 mm | 0.45 m/s, 139° | - | - |
| 1778043628 | 8.89° C | 49% | 1004.9 hPa | 0 mm | 1.79 m/s, 133° | - | - |
| 1778042724 | 8.89° C | 49% | 1004.7 hPa | 0 mm | 0.89 m/s, 133° | - | - |
| 1778041820 | 9.44° C | 47% | 1004.6 hPa | 0 mm | 1.34 m/s, 143° | - | - |
| 1778040916 | 9.44° C | 46% | 1004.6 hPa | 0 mm | 1.34 m/s, 167° | - | - |
* Rain latest hour (hover to see other rain measurements)
** Current wind speed in m/s (hover to see current wind gust speed)